EW5612 Weather Reports


Display with metric or nautical units.
time (UTC)temp
F
wind
direction
speed
MPH
gust
MPH
rain 1hr
in
rain 24hr
in
rain mn
in
humidity
%
barometer
mb
20260904053704 80 118 0.0 0.0 0.00 0.00 0.00 84 1012.0
20260904053203 80 118 0.0 0.0 0.00 0.00 0.00 84 1011.9
20260904052704 80 118 0.0 0.0 0.00 0.00 0.00 84 1011.9
20260904052204 80 118 0.0 0.0 0.00 0.00 0.00 84 1011.9
20260904051703 80 118 0.0 0.0 0.00 0.00 0.00 84 1011.8
20260904051204 80 118 0.0 0.0 0.00 0.00 0.00 84 1011.8
20260904050703 80 118 0.0 0.0 0.00 0.00 0.00 84 1011.6
20260904050203 80 118 0.0 0.0 0.00 0.00 0.00 84 1011.6
20260904045704 80 118 0.0 0.0 0.00 0.00 0.00 84 1011.7
20260904045204 80 110 0.0 0.0 0.00 0.00 0.00 84 1011.6
20260904044703 80 110 0.0 0.0 0.00 0.00 0.00 84 1011.6
20260904044204 80 110 0.0 0.0 0.00 0.00 0.00 84 1011.6
20260904043704 80 110 0.0 0.0 0.00 0.00 0.00 84 1011.5
20260904043203 80 110 0.0 0.0 0.00 0.00 0.00 84 1011.5
20260904042704 80 110 0.0 0.0 0.00 0.00 0.00 84 1011.6
20260904042203 80 110 0.0 0.0 0.00 0.00 0.00 84 1011.6
20260904041703 80 110 0.0 0.0 0.00 0.00 0.00 84 1011.6
20260904041204 80 110 0.0 0.0 0.00 0.00 0.00 84 1011.6
20260904040703 80 110 0.0 0.0 0.00 0.00 0.00 84 1011.6
20260904035704 80 110 0.0 0.0 0.00 0.00 0.00 84 1011.6
20260904035204 80 110 0.0 0.0 0.00 0.00 0.00 84 1011.6
20260904034704 80 110 0.0 0.0 0.00 0.00 0.00 84 1011.6
20260904034203 80 110 0.0 0.0 0.00 0.00 0.00 83 1011.5
20260904033203 80 110 0.0 0.0 0.00 0.00 0.00 83 1011.3
20260904032715 80 110 0.0 0.0 0.00 0.00 0.00 83 1011.3
20260904032204 80 108 0.0 0.0 0.00 0.00 0.00 83 1011.3
20260904031703 80 110 0.0 0.0 0.00 0.00 0.00 83 1011.2
20260904031204 80 108 0.0 0.0 0.00 0.00 0.00 83 1011.3
20260904030703 80 110 0.0 0.0 0.00 0.00 0.00 82 1011.3
20260904030203 80 110 0.0 0.0 0.00 0.00 0.00 82 1011.4
20260904025704 81 113 0.0 0.0 0.00 0.00 0.00 82 1011.4
20260904025203 81 113 0.0 0.0 0.00 0.00 0.00 82 1011.3
20260904024703 81 113 0.0 0.0 0.00 0.00 0.00 82 1011.3
20260904024204 81 111 0.0 0.0 0.00 0.00 0.00 82 1011.2
20260904023703 81 110 0.0 0.0 0.00 0.00 0.00 81 1011.2
20260904023204 81 110 0.0 0.0 0.00 0.00 0.00 81 1011.0
20260904022704 81 110 0.0 0.0 0.00 0.00 0.00 81 1011.1
20260904022203 81 110 0.0 0.0 0.00 0.00 0.00 80 1011.0
20260904021203 81 112 0.0 0.0 0.00 0.00 0.00 80 1010.7
20260904020704 81 112 0.0 0.0 0.00 0.00 0.00 79 1010.6
20260904020204 82 112 0.0 0.0 0.00 0.00 0.00 79 1010.5
20260904015704 82 111 0.0 0.0 0.00 0.00 0.00 79 1010.4
20260904014703 82 109 0.0 0.0 0.00 0.00 0.00 78 1010.4
20260904013704 82 102 0.0 0.0 0.00 0.00 0.00 77 1010.3
20260904013204 82 98 0.0 0.0 0.00 0.00 0.00 76 1010.3
20260904012703 83 96 0.0 0.0 0.00 0.00 0.00 76 1010.2
20260904012203 83 107 0.0 0.0 0.00 0.00 0.00 75 1010.1
20260904011704 83 122 0.0 1.0 0.00 0.00 0.00 75 1010.1
20260904011203 83 278 0.0 0.0 0.00 0.00 0.00 74 1010.0
20260904010704 83 107 0.0 3.0 0.00 0.00 0.00 74 1010.0
20260904010204 83 118 0.0 2.0 0.00 0.00 0.00 73 1009.9
20260904005704 84 109 0.0 0.0 0.00 0.00 0.00 72 1010.0
20260904005203 84 79 0.0 0.0 0.00 0.00 0.00 71 1009.9
20260904004704 84 116 0.0 0.0 0.00 0.00 0.00 71 1010.0
20260904004203 85 109 0.0 0.0 0.00 0.00 0.00 70 1010.1
20260904003704 85 94 0.0 0.0 0.00 0.00 0.00 69 1010.0
20260904003203 85 107 0.0 0.0 0.00 0.00 0.00 69 1010.0
20260904002704 85 106 0.0 1.0 0.00 0.00 0.00 68 1010.0
20260904002203 85 87 0.0 0.0 0.00 0.00 0.00 69 1009.9
20260904001204 85 106 0.0 0.0 0.00 0.00 0.00 68 1009.9
20260904000704 86 110 0.0 0.0 0.00 0.00 0.00 68 1009.8
20260904000204 86 118 0.0 0.0 0.00 0.00 0.00 68 1009.8
20260903235703 86 115 0.0 0.0 0.00 0.00 0.00 67 1009.8
20260903235203 86 128 0.0 0.0 0.00 0.00 0.00 67 1009.8
20260903234703 86 101 0.0 0.0 0.00 0.00 0.00 68 1009.7
20260903234203 86 115 0.0 0.0 0.00 0.00 0.00 68 1009.6
20260903233204 86 94 1.0 7.0 0.00 0.00 0.00 68 1009.7
20260903232704 87 104 0.0 0.0 0.00 0.00 0.00 68 1009.6
20260903232203 87 113 0.0 2.0 0.00 0.00 0.00 67 1009.6
20260903231704 87 111 0.0 3.0 0.00 0.00 0.00 68 1009.6
20260903231204 87 106 1.0 7.0 0.00 0.00 0.00 67 1009.5
20260903230703 87 122 0.0 1.0 0.00 0.00 0.00 67 1009.5
20260903225703 87 108 0.0 3.0 0.00 0.00 0.00 68 1009.6
20260903225204 87 112 0.0 1.0 0.00 0.00 0.00 68 1009.5
20260903224704 88 115 0.0 10.0 0.00 0.00 0.00 68 1009.4
20260903224204 87 95 1.0 3.0 0.00 0.00 0.00 69 1009.3
20260903223703 87 102 0.0 0.0 0.00 0.00 0.00 70 1009.4
20260903222703 87 92 0.0 3.0 0.00 0.00 0.00 69 1009.3
20260903222204 87 107 1.0 5.0 0.00 0.00 0.00 69 1009.4
20260903221704 87 105 0.0 0.0 0.00 0.00 0.00 68 1009.4
20260903221204 88 110 0.0 0.0 0.00 0.00 0.00 68 1009.5
20260903220204 89 116 0.0 0.0 0.00 0.00 0.00 66 1009.6
20260903215704 90 114 0.0 0.0 0.00 0.00 0.00 66 1009.6
20260903215203 91 104 0.0 0.0 0.00 0.00 0.00 64 1009.6
20260903214703 91 119 0.0 0.0 0.00 0.00 0.00 60 1009.4
20260903214204 91 173 0.0 0.0 0.00 0.00 0.00 59 1009.3
20260903213703 91 166 0.0 0.0 0.00 0.00 0.00 60 1009.4
20260903213203 91 159 0.0 0.0 0.00 0.00 0.00 61 1009.4
20260903212703 91 167 0.0 0.0 0.00 0.00 0.00 60 1009.4
20260903212203 91 112 0.0 0.0 0.00 0.00 0.00 60 1009.4
20260903211704 91 109 0.0 0.0 0.00 0.00 0.00 60 1009.4
20260903211204 91 122 0.0 0.0 0.00 0.00 0.00 60 1009.5
20260903210703 91 124 0.0 0.0 0.00 0.00 0.00 61 1009.5
20260903210203 91 125 0.0 0.0 0.00 0.00 0.00 62 1009.5
20260903205704 93 125 0.0 0.0 0.00 0.00 0.00 58 1009.6
20260903205203 95 118 0.0 0.0 0.00 0.00 0.00 55 1009.6
20260903204703 95 117 0.0 0.0 0.00 0.00 0.00 51 1009.6
20260903204204 96 122 0.0 0.0 0.00 0.00 0.00 49 1009.6
20260903203704 97 109 0.0 0.0 0.00 0.00 0.00 47 1009.4
20260903203204 98 108 0.0 0.0 0.00 0.00 0.00 45 1009.3
20260903202703 98 108 0.0 0.0 0.00 0.00 0.00 45 1009.5
20260903202204 99 85 0.0 0.0 0.00 0.00 0.00 45 1009.5
20260903201204 99 173 0.0 0.0 0.00 0.00 0.00 45 1009.7
20260903200703 99 102 0.0 0.0 0.00 0.00 0.00 44 1009.7
20260903200203 99 118 0.0 0.0 0.00 0.00 0.00 44 1009.6
20260903195703 99 118 0.0 0.0 0.00 0.00 0.00 45 1009.7
20260903195203 99 114 0.0 0.0 0.00 0.00 0.00 44 1009.7
20260903194704 100 115 0.0 0.0 0.00 0.00 0.00 45 1009.9
20260903194203 100 118 0.0 0.0 0.00 0.00 0.00 44 1009.9
20260903193704 100 185 0.0 0.0 0.00 0.00 0.00 44 1009.9
20260903193203 100 192 0.0 0.0 0.00 0.00 0.00 43 1009.9
20260903192704 99 134 0.0 0.0 0.00 0.00 0.00 45 1010.0
20260903192204 99 158 0.0 0.0 0.00 0.00 0.00 46 1010.0
20260903191703 99 350 0.0 0.0 0.00 0.00 0.00 46 1010.2
20260903191203 99 80 0.0 0.0 0.00 0.00 0.00 45 1010.3
20260903190703 100 114 0.0 0.0 0.00 0.00 0.00 45 1010.4
20260903190204 100 209 0.0 0.0 0.00 0.00 0.00 46 1010.5
20260903185703 99 177 0.0 0.0 0.00 0.00 0.00 46 1010.5
20260903185204 99 158 0.0 0.0 0.00 0.00 0.00 45 1010.6
20260903184703 99 99 0.0 0.0 0.00 0.00 0.00 47 1010.7
20260903184203 98 161 0.0 0.0 0.00 0.00 0.00 47 1010.7
20260903183204 97 182 0.0 0.0 0.00 0.00 0.00 48 1011.0
20260903182203 97 170 0.0 0.0 0.00 0.00 0.00 48 1011.2
20260903181703 96 190 0.0 0.0 0.00 0.00 0.00 48 1011.3
20260903181203 96 179 0.0 0.0 0.00 0.00 0.00 50 1011.4
20260903180204 96 185 0.0 0.0 0.00 0.00 0.00 50 1011.5
20260903175204 96 188 0.0 0.0 0.00 0.00 0.00 51 1011.7
20260903174704 95 183 0.0 0.0 0.00 0.00 0.00 51 1011.6
20260903174204 95 185 0.0 0.0 0.00 0.00 0.00 53 1011.7
20260903173704 95 110 0.0 0.0 0.00 0.00 0.00 54 1011.7
20260903173203 94 171 0.0 0.0 0.00 0.00 0.00 55 1011.8
20260903172703 94 157 0.0 0.0 0.00 0.00 0.00 55 1011.9
20260903171203 93 175 0.0 0.0 0.00 0.00 0.00 56 1011.9
20260903170704 93 186 0.0 0.0 0.00 0.00 0.00 58 1011.9
20260903170204 92 175 0.0 0.0 0.00 0.00 0.00 58 1012.0
20260903165203 92 182 0.0 0.0 0.00 0.00 0.00 61 1012.2
20260903164704 91 171 0.0 0.0 0.00 0.00 0.00 62 1012.2
20260903164204 91 200 0.0 0.0 0.00 0.00 0.00 63 1012.2
20260903163703 91 156 0.0 0.0 0.00 0.00 0.00 64 1012.2
20260903163203 90 181 0.0 0.0 0.00 0.00 0.00 64 1012.3
20260903162703 90 185 0.0 0.0 0.00 0.00 0.00 64 1012.3
20260903162204 90 173 0.0 0.0 0.00 0.00 0.00 64 1012.4
20260903161703 90 144 0.0 0.0 0.00 0.00 0.00 65 1012.4
20260903161204 89 186 0.0 0.0 0.00 0.00 0.00 66 1012.4
20260903160704 89 182 0.0 0.0 0.00 0.00 0.00 67 1012.3
20260903160204 88 177 0.0 0.0 0.00 0.00 0.00 69 1012.1
20260903155203 88 192 0.0 0.0 0.00 0.00 0.00 70 1012.1
20260903154703 87 189 0.0 0.0 0.00 0.00 0.00 70 1012.2
20260903154204 87 181 0.0 0.0 0.00 0.00 0.00 70 1012.2
20260903153704 86 165 0.0 0.0 0.00 0.00 0.00 72 1012.2
20260903153203 86 177 0.0 1.0 0.00 0.00 0.00 73 1012.2
20260903152204 86 178 0.0 0.0 0.00 0.00 0.00 74 1012.4
20260903151704 86 192 0.0 0.0 0.00 0.00 0.00 74 1012.5
20260903151203 86 183 0.0 0.0 0.00 0.00 0.00 75 1012.4
20260903150703 86 179 0.0 0.0 0.00 0.00 0.00 75 1012.4
20260903150203 86 177 0.0 0.0 0.00 0.00 0.00 75 1012.5
20260903145704 85 187 0.0 0.0 0.00 0.00 0.00 76 1012.4
20260903145203 85 179 0.0 0.0 0.00 0.00 0.00 76 1012.4
20260903144204 84 161 0.0 0.0 0.00 0.00 0.00 78 1012.3
20260903143704 84 177 0.0 0.0 0.00 0.00 0.00 79 1012.3
20260903143203 84 162 0.0 0.0 0.00 0.00 0.00 79 1012.3
20260903142703 84 175 0.0 0.0 0.00 0.00 0.00 79 1012.4
20260903142203 84 164 0.0 1.0 0.00 0.00 0.00 80 1012.4
20260903141703 84 175 0.0 0.0 0.00 0.00 0.00 81 1012.3
20260903141204 83 214 0.0 1.0 0.00 0.00 0.00 81 1012.2
20260903140703 83 183 0.0 1.0 0.00 0.00 0.00 82 1012.2
20260903140204 83 185 0.0 0.0 0.00 0.00 0.00 83 1012.2
20260903135703 83 186 0.0 0.0 0.00 0.00 0.00 83 1012.3
20260903133703 82 195 0.0 0.0 0.00 0.00 0.00 85 1012.5
20260903133203 82 177 1.0 3.0 0.00 0.00 0.00 85 1012.4
20260903132704 82 193 0.0 5.0 0.00 0.00 0.00 85 1012.4
20260903132203 82 189 0.0 0.0 0.00 0.00 0.00 86 1012.4
20260903131704 82 165 0.0 0.0 0.00 0.00 0.00 86 1012.4
20260903131204 82 178 0.0 0.0 0.00 0.00 0.00 86 1012.4
20260903130704 82 181 0.0 1.0 0.00 0.00 0.00 86 1012.4
20260903125704 81 189 0.0 0.0 0.00 0.00 0.00 86 1012.3
20260903125204 81 179 0.0 0.0 0.00 0.00 0.00 86 1012.3
20260903124703 81 171 0.0 0.0 0.00 0.00 0.00 86 1012.2
20260903124203 81 196 0.0 0.0 0.00 0.00 0.00 86 1012.2
20260903123704 81 196 0.0 0.0 0.00 0.00 0.00 86 1012.1
20260903123203 81 196 0.0 0.0 0.00 0.00 0.00 86 1012.1
20260903122703 81 195 0.0 0.0 0.00 0.00 0.00 86 1012.1
20260903122204 81 157 0.0 0.0 0.00 0.00 0.00 86 1012.1
20260903121704 81 158 0.0 0.0 0.00 0.00 0.00 86 1012.0
20260903121203 81 182 0.0 0.0 0.00 0.00 0.00 86 1012.1
20260903120704 81 169 0.0 0.0 0.00 0.00 0.00 86 1012.0
20260903114204 81 183 0.0 0.0 0.00 0.00 0.00 86 1011.7
20260903113704 81 186 0.0 0.0 0.00 0.00 0.00 86 1011.7
20260903113204 81 179 0.0 0.0 0.00 0.00 0.00 86 1011.6
20260903112204 81 187 0.0 0.0 0.00 0.00 0.00 86 1011.6
20260903111703 81 187 0.0 0.0 0.00 0.00 0.00 86 1011.6
20260903111204 81 187 1.0 5.0 0.00 0.00 0.00 86 1011.6
20260903110703 81 180 0.0 0.0 0.00 0.00 0.00 86 1011.7
20260903110204 81 202 0.0 2.0 0.00 0.00 0.00 86 1011.6
20260903105204 81 181 0.0 0.0 0.00 0.00 0.00 86 1011.6
20260903104703 81 178 0.0 0.0 0.00 0.00 0.00 86 1011.6
20260903104204 81 168 0.0 0.0 0.00 0.00 0.00 86 1011.6
20260903102203 81 185 0.0 0.0 0.00 0.00 0.00 86 1011.5
20260903101704 81 180 0.0 0.0 0.00 0.00 0.00 86 1011.5
20260903101204 81 180 0.0 0.0 0.00 0.00 0.00 86 1011.5
20260903100704 81 173 0.0 0.0 0.00 0.00 0.00 85 1011.5
20260903100204 82 170 0.0 0.0 0.00 0.00 0.00 85 1011.5
20260903095206 82 195 0.0 0.0 0.00 0.00 0.00 85 1011.5
20260903094704 81 178 0.0 0.0 0.00 0.00 0.00 85 1011.5
20260903094203 81 179 0.0 0.0 0.00 0.00 0.00 85 1011.6
20260903093703 81 179 0.0 0.0 0.00 0.00 0.00 85 1011.6
20260903092704 81 186 0.0 0.0 0.00 0.00 0.00 85 1011.7
20260903092204 81 209 0.0 0.0 0.00 0.00 0.00 85 1011.8
20260903091703 81 188 0.0 0.0 0.00 0.00 0.00 86 1011.8
20260903091204 81 184 0.0 1.0 0.00 0.00 0.00 86 1011.8
20260903090203 82 184 0.0 0.0 0.00 0.00 0.00 86 1011.7
20260903085204 82 184 0.0 0.0 0.00 0.00 0.00 86 1011.6
20260903084704 81 184 0.0 0.0 0.00 0.00 0.00 86 1011.7
20260903084203 81 175 0.0 0.0 0.00 0.00 0.00 86 1011.8
20260903083703 81 172 0.0 0.0 0.00 0.00 0.00 85 1011.8
20260903083203 81 172 0.0 0.0 0.00 0.00 0.00 85 1011.8
20260903082703 81 169 0.0 0.0 0.00 0.00 0.00 85 1011.7
20260903082204 81 180 0.0 0.0 0.00 0.00 0.00 85 1011.7
20260903081703 81 183 0.0 0.0 0.00 0.00 0.00 85 1011.7
20260903080704 82 183 0.0 0.0 0.00 0.00 0.00 85 1011.7
20260903074704 82 183 0.0 0.0 0.00 0.00 0.00 85 1011.9
20260903074203 82 183 0.0 0.0 0.00 0.00 0.00 84 1011.8
20260903073703 82 183 0.0 0.0 0.00 0.00 0.00 84 1011.9
20260903073203 82 189 0.0 0.0 0.00 0.00 0.00 84 1011.9
20260903072704 82 189 0.0 0.0 0.00 0.00 0.00 84 1011.9
20260903072203 82 178 0.0 0.0 0.00 0.00 0.00 84 1011.9
20260903071703 82 193 0.0 0.0 0.00 0.00 0.00 84 1011.9
20260903071203 82 196 0.0 0.0 0.00 0.00 0.00 83 1012.1
20260903070704 82 196 0.0 0.0 0.00 0.00 0.00 83 1012.1
20260903070204 82 196 0.0 0.0 0.00 0.00 0.00 83 1011.9
20260903065703 82 197 0.0 0.0 0.00 0.00 0.00 83 1011.9
20260903065203 82 179 0.0 0.0 0.00 0.00 0.00 83 1011.9
20260903064204 82 177 0.0 0.0 0.00 0.00 0.00 82 1012.0
20260903063203 82 177 0.0 0.0 0.00 0.00 0.00 82 1012.0
20260903062704 82 171 0.0 0.0 0.00 0.00 0.00 82 1012.0
20260903062204 82 192 0.0 0.0 0.00 0.00 0.00 82 1012.1
20260903061704 82 194 0.0 0.0 0.00 0.00 0.00 82 1012.0
20260903061204 82 194 0.0 0.0 0.00 0.00 0.00 82 1012.0
20260903060703 81 145 0.0 0.0 0.00 0.00 0.00 81 1012.1
20260903060203 81 142 0.0 0.0 0.00 0.00 0.00 81 1012.0
20260903055704 81 142 0.0 0.0 0.00 0.00 0.00 81 1012.0
20260903055203 81 142 0.0 0.0 0.00 0.00 0.00 81 1012.0
20260903054704 81 142 0.0 0.0 0.00 0.00 0.00 81 1012.1